GSAT0207 (GALILEO 15) (41859 NORAD) Tracking and Keplerian Element Data

This shows tracking and keplerian element data for the satellite.

Feedback or suggestion? Click here.




ElementValue
Catalog41859
NameGSAT0207 (GALILEO 15)
Epoch Orbit5110
Epoch Day33.56295564
Epoch Year2025
RAAN114.9283
Inclination55.2018
Eccentricity0.0003606
Argument of Perigee295.7841
Mean Anonmoly64.2299
Mean Motion1.70474636
Decay Rate0
L11 41859U 16069A 25033.56295564 .00000000 00000+0 00000+0 0 9992
L22 41859 55.2018 114.9283 0003606 295.7841 64.2299 1.70474636 51106



Live tracking and technical data element details for GSAT0207 (GALILEO 15) (NORAD 41859). GSAT0207 (GALILEO 15) can be tracked NOW for your location showing map with azimuth and elevation plus other details from your city location.







IsCatalogInMostPopularTable: catalog: 41859, numindb: 826
Update: records affected: 1



GetName: 41859 GSAT0207 (GALILEO 15)

Hit Count: updated at: Sat, 17 May 2025 05:30:29 GMT